Location: Chevoux
(46.3801°N, 4.9476°E)
Time: 03:32:26
(UTC+00:00)

Envisat - Pass Details

Date: 10 December 2021
Orbit: 764 x 766 km, 98.2° (Epoch: 16 January)

Event Time Altitude Azimuth Distance (km) Brightness Sun altitude
Rises 16:25:02 0° 188° (S) 3,219 6.8 -5.5°
Reaches altitude 10° 16:27:30 10° 197° (SSW) 2,298 6.2 -5.9°
Maximum altitude 16:32:09 36° 264° (W) 1,198 4.8 -6.6°
Drops below altitude 10° 16:36:50 10° 330° (NNW) 2,313 5.6 -7.3°
Sets 16:39:20 0° 339° (NNW) 3,244 6.2 -7.7°
